SL-16 DEB, 22291

Orbit data source: Space-Track

SL-16 DEB, 22291 is space debris in LEO originally from a launch on Fri, 25 Dec 1992 UTC launched from the Tyuratam Missile And Space Complex (TTMTR). Debris objects in space refer to the collection of defunct objects orbiting the Earth. Examples of debris include non-operational satellites, rocket bodies, and fragments generated from explosions, collisions, or faulty payload assembly.

Loading next visibility...
Identifier
22291, 1992-093F
Orbit
LEO
Country
Flag of CISCIS
Related business
Manufacturer
Yuzhnoe
Mission
Spacecraft
Bus & Motor
SEP MOTOR COVER, Unknown motor
Mass
~0 kg wet, ~1 kg dry
Launch date (UTC)
1992-12-25 (33 years ago)
Launch vehicle
Unknown
Launch site
Tyuratam Missile And Space Complex (TTMTR)
Object type
Payload
Rocket body
Debris
Shape & HBR
Unknown shape, 0.1 m
Radar Cross Section
Small (<0.1 m²)

Expand to show TLE details & history
Last TLE update: 7 hours ago

TLE from 7 hours ago
0 SL-16 DEB
1 22291U 92093F   25298.15053882  .00000230  00000-0  25499-3 0  9994
2 22291  71.0094 224.0903 0207391  18.2475  90.0722 13.72485073643494
Epoch: 2025-10-25T03:36Z
TLE epoch observation values (Epoch: 2025-10-25T03:36:46.554Z)
Latitude
62.30137°
Longitude
-84.59206°
Altitude
1,004.167 km
Speed
7.354 km/s
True Right ascension
00h 13m 32s
True Declination
62° 09' 52"
Sunlit
Object was in full shadow at epoch
Visualization orbit readout
Latitude
Unknown
Longitude
Unknown
Altitude
Unknown
Speed
Unknown
Apparent Right ascension
Unknown
Apparent Declination
Unknown
Sunlit
N/A
Visualization observer readout
Local Sidereal Time
05:54:34
Azimuth
Unknown
Elevation
Unknown
Doppler factor
Unknown
Orbital elements
Apogee altitude
1,141.407 km
Perigee altitude
835.847 km
Semi-major axis
7,366.764 km
Eccentricity
0.02074
Inclination
71.0094°
RAAN
224.0903°
Arg. of periapsis
18.2475°
True anomaly
92.44797°
Mean anomaly
90.0722°
Eccentric anomaly
91.26018°
Mean motion
3.43264 °/min
Orbital period
104.88 mins
BSTAR
0.00025499
Loading maneuver chart data...
Computing Atmospheric mass density...

Documentation

Showing up to 5 results
|